Home > Weather > San Jose > Past weeks

Flag for USA Past Weather in San Jose, California, USA — Yesterday and Last 2 Weeks

Now
69 °F

Sunny.


Feels Like: 69 °F
Forecast: 57 / 81 °F
Wind: 15 mph from Northwest

Location: San Jose International Airport

Current Time: Jun 29, 2016 at 6:47:02 PM

Latest Report: Jun 29, 2016 at 5:53 PM


Visibility: 10 mi

Pressure: 29.93 "Hg

Humidity: 59%

Dew Point: 54 °F

Location of San JoseLocation

Past Weather in San Jose — Graph

°F

San Jose Temperature Yesterday

Maximum temperature yesterday: 84 °F (at 1:53 PM)
Minimum temperature yesterday: 61 °F (at 4:53 AM)
Average temperature yesterday: 70 °F

High & Low Weather Summary for the Past Weeks

 TemperatureHumidityPressure
High90 °F (Jun 21, 2:53 PM)87% (Jun 23, 5:53 AM)30.19 "Hg (Jun 23, 5:53 AM)
Low52 °F (Jun 15, 4:53 AM)19% (Jun 20, 3:53 PM)29.90 "Hg (Jun 25, 4:53 PM)
Average68 °F57%30.02 "Hg
* Reported Jun 14 4:53 PM — Jun 29 4:53 PM, San Jose, Weather by CustomWeather, © 2016

Note: Actual official high and low records may vary slightly from our data, if they occured in-between our weather recording intervals... More about our weather records

Advertising

San Jose Weather History for the Previous 24 Hours

Scroll right to see more
 ConditionsComfort  
Time TempWeatherWind HumidityBarometerVisibility
4:53 PM
Wed, Jun 29
72 °FSunny.14 mph55%29.93 "Hg10 mi
3:53 PM72 °FSunny.13 mph55%29.95 "Hg10 mi
2:53 PM72 °FSunny.12 mph55%29.96 "Hg10 mi
1:53 PM72 °FSunny.13 mph55%29.97 "Hg10 mi
12:53 PM71 °FSunny.9 mph57%29.98 "Hg10 mi
11:53 AM69 °FSunny.8 mph59%29.99 "Hg10 mi
10:53 AM67 °FPassing clouds.8 mph63%29.99 "Hg10 mi
9:53 AM64 °FPassing clouds.5 mph68%30.00 "Hg10 mi
9:03 AM62 °FScattered clouds.5 mph73%30.00 "Hg10 mi
8:53 AM62 °FBroken clouds.6 mph73%29.99 "Hg10 mi
7:53 AM59 °FPartly sunny.7 mph81%29.98 "Hg9 mi
6:53 AM58 °FPartly sunny.6 mph84%29.96 "Hg9 mi
5:53 AM57 °FClear.6 mph87%29.95 "Hg9 mi
4:53 AM58 °FClear.5 mph84%29.94 "Hg9 mi
3:53 AM59 °FClear.7 mph81%29.93 "Hg9 mi
2:53 AM60 °FClear.5 mph80%29.93 "Hg10 mi
1:53 AM60 °FClear.6 mph78%29.93 "Hg10 mi
12:53 AM61 °FClear.7 mph81%29.95 "Hg10 mi
11:53 PM
Tue, Jun 28
61 °FClear.6 mph78%29.95 "Hg10 mi
10:53 PM62 °FClear.8 mph78%29.96 "Hg10 mi
9:53 PM64 °FClear.8 mph73%29.95 "Hg10 mi
8:53 PM66 °FPassing clouds.8 mph68%29.95 "Hg10 mi
7:53 PM70 °FPassing clouds.9 mph59%29.94 "Hg10 mi
6:53 PM74 °FPassing clouds.10 mph52%29.93 "Hg10 mi
Weather by CustomWeather, © 2016

See weather overviewHow to use our weather pages